TimeEST,TemperatureF,Dew PointF,Humidity,Sea Level PressureIn,VisibilityMPH,Wind Direction,Wind SpeedMPH,Gust SpeedMPH,PrecipitationIn,Events,Conditions,WindDirDegrees,DateUTC
12:53 AM,30.9,21.0,67,30.40,10.0,SSW,10.4,-,N/A,,Clear,210,2011-12-12 05:53:00
1:53 AM,30.0,21.0,69,30.39,10.0,SW,11.5,-,N/A,,Clear,220,2011-12-12 06:53:00
2:53 AM,30.0,21.0,69,30.40,10.0,SSW,8.1,-,N/A,,Clear,210,2011-12-12 07:53:00
3:53 AM,28.9,21.0,72,30.41,10.0,SSW,8.1,-,N/A,,Clear,210,2011-12-12 08:53:00
4:53 AM,27.0,21.0,78,30.40,10.0,SSW,6.9,-,N/A,,Clear,210,2011-12-12 09:53:00
5:15 AM,28.4,21.2,74,30.38,10.0,SW,6.9,-,N/A,,Mostly Cloudy,230,2011-12-12 10:15:00
5:53 AM,30.9,21.9,69,30.41,10.0,SW,8.1,-,N/A,,Overcast,220,2011-12-12 10:53:00
6:53 AM,30.9,21.9,69,30.41,10.0,SSW,6.9,-,N/A,,Overcast,200,2011-12-12 11:53:00
7:18 AM,30.2,21.2,69,30.40,10.0,SSW,6.9,-,N/A,,Scattered Clouds,200,2011-12-12 12:18:00
7:53 AM,28.9,21.9,75,30.44,10.0,SSW,5.8,-,N/A,,Mostly Cloudy,210,2011-12-12 12:53:00
8:06 AM,30.2,21.2,69,30.42,10.0,SSW,5.8,-,N/A,,Mostly Cloudy,210,2011-12-12 13:06:00
8:53 AM,32.0,23.0,69,30.41,10.0,SSW,5.8,-,N/A,,Overcast,200,2011-12-12 13:53:00
9:53 AM,33.1,25.0,72,30.45,10.0,SW,6.9,-,N/A,,Overcast,220,2011-12-12 14:53:00
10:27 AM,33.8,24.8,70,30.42,10.0,SSW,6.9,-,N/A,,Scattered Clouds,200,2011-12-12 15:27:00
10:53 AM,36.0,25.0,64,30.44,10.0,SSW,8.1,-,N/A,,Clear,200,2011-12-12 15:53:00
11:53 AM,39.0,26.1,60,30.42,10.0,South,10.4,-,N/A,,Clear,190,2011-12-12 16:53:00
12:53 PM,41.0,28.0,60,30.41,10.0,SW,9.2,-,N/A,,Clear,220,2011-12-12 17:53:00
1:53 PM,43.0,28.9,58,30.40,10.0,SW,8.1,-,N/A,,Clear,220,2011-12-12 18:53:00
2:53 PM,43.0,28.9,58,30.38,10.0,SW,9.2,-,N/A,,Clear,230,2011-12-12 19:53:00
3:53 PM,43.0,30.0,60,30.38,10.0,South,6.9,-,N/A,,Clear,190,2011-12-12 20:53:00
4:53 PM,39.9,28.9,65,30.39,10.0,South,4.6,-,N/A,,Clear,180,2011-12-12 21:53:00
5:53 PM,39.2,28.4,65,30.38,10.0,SSW,5.8,-,N/A,,Clear,210,2011-12-12 22:53:00
6:53 PM,37.9,28.9,70,30.41,9.0,SW,6.9,-,N/A,,Partly Cloudy,220,2011-12-12 23:53:00
7:53 PM,39.0,28.9,67,30.39,9.0,SSW,8.1,-,N/A,,Partly Cloudy,200,2011-12-13 00:53:00
8:53 PM,37.0,28.0,70,30.41,10.0,WSW,6.9,-,N/A,,Partly Cloudy,240,2011-12-13 01:53:00
9:53 PM,37.0,28.0,70,30.42,9.0,SW,8.1,-,N/A,,Overcast,230,2011-12-13 02:53:00
10:53 PM,37.9,27.0,65,30.41,10.0,SSW,9.2,-,N/A,,Overcast,200,2011-12-13 03:53:00
11:53 PM,37.0,27.0,67,30.43,10.0,SW,6.9,-,N/A,,Mostly Cloudy,230,2011-12-13 04:53:00